Location: Krakow
(50.0212°N, 19.9423°E)
Time: 21:19:37
(UTC+02:00)

UWE-3 - Pass Details

Date: 27 April 2024
Orbit: 569 x 652 km, 97.8° (Epoch: 19 May)

Event Time Altitude Azimuth Distance (km) Brightness Sun altitude
Rises 02:32:17 0° 22° (NNE) 2,871 ? -21.3°
Reaches altitude 10° 02:34:42 10° 35° (NE) 1,977 ? -21.1°
Maximum altitude 02:38:26 28° 95° (E) 1,165 ? -20.8°
Enters shadow 02:40:49 18° 142° (SE) 1,553 ? -20.6°
